^^
Saratoga-Weather Station Historical Data
Daily Summary for May 16, 2020 Units:  Metric    English   Both
Daily Weekly Monthly Yearly Custom
  High: Low: Average:
Temperature: 16.3 °C 14.9 °C 15.5 °C
Dew Point: 14.1 °C 12.4 °C 13.4 °C
Humidity: 90% 84% 87%
Wind Speed: 11.1km/h 0km/h 4.2km/h
Wind Gust: 17.7km/h - -
Wind- - West
Pressure: 1017.3 hPa 1015.6 hPa -
Precipitation: 0.0 mm    
Historical Graphs
 
 
Tabular Data for May 16, 2020
Time Temperature Dew Point Pressure Wind Wind Speed Wind Gust Humidity Rainfall Rate (Hourly) solar
00:04 15.9 °C 13.9 °C 1015.6 hPa Calm     88% 0.0 mm 0 W/m2
00:09 16 °C 14 °C 1015.6 hPa ENE 1.4 km/h 3.2 km/h 88% 0.0 mm 0 W/m2
00:14 16 °C 14 °C 1015.9 hPa NW 1.4 km/h 1.6 km/h 88% 0.0 mm 0 W/m2
00:20 16.1 °C 14.1 °C 1015.9 hPa Calm   1.6 km/h 88% 0.0 mm 0 W/m2
00:25 16.1 °C 13.9 °C 1015.9 hPa Calm   1.6 km/h 87% 0.0 mm 0 W/m2
00:30 16.1 °C 13.9 °C 1015.9 hPa Calm   1.6 km/h 87% 0.0 mm 0 W/m2
00:35 16.1 °C 13.9 °C 1015.9 hPa Calm   1.6 km/h 87% 0.0 mm 0 W/m2
00:40 16.2 °C 14 °C 1015.9 hPa Calm   1.6 km/h 87% 0.0 mm 0 W/m2
00:45 16.2 °C 14 °C 1015.9 hPa Calm   1.6 km/h 87% 0.0 mm 0 W/m2
00:50 16.2 °C 14 °C 1015.9 hPa Calm   1.6 km/h 87% 0.0 mm 0 W/m2
00:55 16.2 °C 14 °C 1015.9 hPa WNW 1.4 km/h 4.8 km/h 87% 0.0 mm 0 W/m2
01:00 16.2 °C 14 °C 1015.9 hPa Calm   1.6 km/h 87% 0.0 mm 0 W/m2
01:05 16.2 °C 13.9 °C 1015.9 hPa Calm   4.8 km/h 86% 0.0 mm 0 W/m2
01:10 16.3 °C 14 °C 1015.9 hPa WSW 3.2 km/h 4.8 km/h 86% 0.0 mm 0 W/m2
01:15 16.3 °C 14 °C 1015.9 hPa West 3.2 km/h 9.7 km/h 86% 0.0 mm 0 W/m2
01:20 16.3 °C 14 °C 1015.9 hPa WSW 4.7 km/h 6.4 km/h 86% 0.0 mm 0 W/m2
01:25 16.3 °C 14 °C 1015.9 hPa West 1.4 km/h 4.8 km/h 86% 0.0 mm 0 W/m2
01:30 16.3 °C 14 °C 1015.9 hPa SW 6.4 km/h 11.3 km/h 86% 0.0 mm 0 W/m2
01:35 16.3 °C 14 °C 1015.9 hPa WSW 6.4 km/h 6.4 km/h 86% 0.0 mm 0 W/m2
01:40 16.3 °C 14.1 °C 1015.9 hPa WNW 4.7 km/h 11.3 km/h 87% 0.0 mm 0 W/m2
01:45 16.3 °C 14.1 °C 1015.9 hPa West 3.2 km/h 6.4 km/h 87% 0.0 mm 0 W/m2
01:50 16.3 °C 14.1 °C 1015.9 hPa WNW 7.9 km/h 9.7 km/h 87% 0.0 mm 0 W/m2
01:55 16.2 °C 14 °C 1015.9 hPa West 9.7 km/h 9.7 km/h 87% 0.0 mm 0 W/m2
02:00 16.2 °C 14 °C 1015.9 hPa WNW 1.4 km/h 11.3 km/h 87% 0.0 mm 0 W/m2
02:05 16.1 °C 13.9 °C 1015.9 hPa WSW 6.4 km/h 12.9 km/h 87% 0.0 mm 0 W/m2
02:10 16.1 °C 13.9 °C 1015.9 hPa West 4.7 km/h 9.7 km/h 87% 0.0 mm 0 W/m2
02:15 16.1 °C 13.9 °C 1015.9 hPa West 3.2 km/h 12.9 km/h 87% 0.0 mm 0 W/m2
02:20 16.1 °C 13.9 °C 1015.9 hPa WSW 3.2 km/h 8 km/h 87% 0.0 mm 0 W/m2
02:25 16 °C 13.8 °C 1015.9 hPa WSW 6.4 km/h 12.9 km/h 87% 0.0 mm 0 W/m2
02:30 15.9 °C 13.9 °C 1015.9 hPa West 4.7 km/h 12.9 km/h 88% 0.0 mm 0 W/m2
02:35 15.9 °C 13.9 °C 1015.9 hPa WNW 9.7 km/h 12.9 km/h 88% 0.0 mm 0 W/m2
02:40 15.9 °C 13.9 °C 1015.9 hPa NW 4.7 km/h 6.4 km/h 88% 0.0 mm 0 W/m2
02:45 15.9 °C 13.9 °C 1015.9 hPa West 4.7 km/h 12.9 km/h 88% 0.0 mm 0 W/m2
02:50 15.9 °C 13.9 °C 1015.6 hPa SW 6.4 km/h 6.4 km/h 88% 0.0 mm 0 W/m2
02:55 15.9 °C 13.7 °C 1015.9 hPa West 4.7 km/h 9.7 km/h 87% 0.0 mm 0 W/m2
03:00 15.9 °C 13.9 °C 1015.9 hPa WNW 4.7 km/h 9.7 km/h 88% 0.0 mm 0 W/m2
03:05 15.9 °C 13.9 °C 1015.9 hPa West 6.4 km/h 12.9 km/h 88% 0.0 mm 0 W/m2
03:10 15.9 °C 13.7 °C 1015.9 hPa West 3.2 km/h 6.4 km/h 87% 0.0 mm 0 W/m2
03:15 15.9 °C 13.7 °C 1015.9 hPa WNW 9.7 km/h 9.7 km/h 87% 0.0 mm 0 W/m2
03:20 15.9 °C 13.7 °C 1015.9 hPa NW 4.7 km/h 9.7 km/h 87% 0.0 mm 0 W/m2
03:25 15.9 °C 13.7 °C 1015.9 hPa West 9.7 km/h 11.3 km/h 87% 0.0 mm 0 W/m2
03:30 15.8 °C 13.6 °C 1015.9 hPa WSW 3.2 km/h 12.9 km/h 87% 0.0 mm 0 W/m2
03:35 15.8 °C 13.6 °C 1015.9 hPa WNW 1.4 km/h 11.3 km/h 87% 0.0 mm 0 W/m2
03:40 15.8 °C 13.6 °C 1015.9 hPa West 9.7 km/h 12.9 km/h 87% 0.0 mm 0 W/m2
03:45 15.8 °C 13.6 °C 1015.9 hPa West 4.7 km/h 8 km/h 87% 0.0 mm 0 W/m2
03:50 15.8 °C 13.6 °C 1015.9 hPa West 6.4 km/h 11.3 km/h 87% 0.0 mm 0 W/m2
03:55 15.7 °C 13.5 °C 1015.9 hPa West 1.4 km/h 4.8 km/h 87% 0.0 mm 0 W/m2
04:00 15.7 °C 13.5 °C 1015.9 hPa WSW 1.4 km/h 11.3 km/h 87% 0.0 mm 0 W/m2
04:05 15.7 °C 13.5 °C 1015.9 hPa WSW 4.7 km/h 4.8 km/h 87% 0.0 mm 0 W/m2
04:10 15.7 °C 13.5 °C 1015.9 hPa West 3.2 km/h 6.4 km/h 87% 0.0 mm 0 W/m2
04:15 15.7 °C 13.7 °C 1015.9 hPa WNW 3.2 km/h 3.2 km/h 88% 0.0 mm 0 W/m2
04:20 15.6 °C 13.6 °C 1015.9 hPa WSW 1.4 km/h 4.8 km/h 88% 0.0 mm 0 W/m2
04:25 15.6 °C 13.6 °C 1015.9 hPa West 3.2 km/h 4.8 km/h 88% 0.0 mm 0 W/m2
04:30 15.6 °C 13.8 °C 1015.9 hPa West 1.4 km/h 4.8 km/h 89% 0.0 mm 0 W/m2
04:35 15.5 °C 13.7 °C 1015.9 hPa West 3.2 km/h 4.8 km/h 89% 0.0 mm 0 W/m2
04:40 15.4 °C 13.6 °C 1015.9 hPa West 4.7 km/h 4.8 km/h 89% 0.0 mm 0 W/m2
04:45 15.4 °C 13.6 °C 1015.9 hPa West 4.7 km/h 6.4 km/h 89% 0.0 mm 0 W/m2
04:50 15.4 °C 13.6 °C 1015.9 hPa NW 4.7 km/h 4.8 km/h 89% 0.0 mm 0 W/m2
04:55 15.4 °C 13.6 °C 1015.9 hPa WNW 3.2 km/h 6.4 km/h 89% 0.0 mm 0 W/m2
05:00 15.4 °C 13.8 °C 1016.3 hPa NW 3.2 km/h 3.2 km/h 90% 0.0 mm 0 W/m2
05:05 15.4 °C 13.8 °C 1015.9 hPa WSW 4.7 km/h 4.8 km/h 90% 0.0 mm 0 W/m2
05:10 15.4 °C 13.8 °C 1016.3 hPa NW 3.2 km/h 6.4 km/h 90% 0.0 mm 0 W/m2
05:15 15.4 °C 13.8 °C 1016.3 hPa West 3.2 km/h 9.7 km/h 90% 0.0 mm 0 W/m2
05:20 15.4 °C 13.8 °C 1016.3 hPa WNW 4.7 km/h 11.3 km/h 90% 0.0 mm 0 W/m2
05:25 15.4 °C 13.8 °C 1016.3 hPa WNW 3.2 km/h 6.4 km/h 90% 0.0 mm 0 W/m2
05:30 15.4 °C 13.8 °C 1016.3 hPa West 3.2 km/h 11.3 km/h 90% 0.0 mm 0 W/m2
05:35 15.4 °C 13.8 °C 1016.3 hPa West 6.4 km/h 12.9 km/h 90% 0.0 mm 0 W/m2
05:40 15.3 °C 13.7 °C 1016.3 hPa WSW 6.4 km/h 14.5 km/h 90% 0.0 mm 0 W/m2
05:45 15.3 °C 13.7 °C 1016.3 hPa West 9.7 km/h 9.7 km/h 90% 0.0 mm 0 W/m2
05:50 15.3 °C 13.7 °C 1016.3 hPa West 4.7 km/h 14.5 km/h 90% 0.0 mm 0 W/m2
05:55 15.3 °C 13.7 °C 1016.3 hPa WSW 7.9 km/h 9.7 km/h 90% 0.0 mm 0 W/m2
06:00 15.3 °C 13.5 °C 1016.3 hPa West 4.7 km/h 8 km/h 89% 0.0 mm 0 W/m2
06:05 15.3 °C 13.5 °C 1016.3 hPa West 3.2 km/h 9.7 km/h 89% 0.0 mm 0 W/m2
06:10 15.3 °C 13.5 °C 1016.3 hPa WNW 3.2 km/h 4.8 km/h 89% 0.0 mm 0 W/m2
06:15 15.3 °C 13.5 °C 1016.3 hPa WNW 4.7 km/h 6.4 km/h 89% 0.0 mm 0 W/m2
06:20 15.3 °C 13.5 °C 1016.3 hPa WNW 1.4 km/h 6.4 km/h 89% 0.0 mm 7 W/m2
06:25 15.2 °C 13.4 °C 1016.3 hPa WSW 6.4 km/h 9.7 km/h 89% 0.0 mm 12 W/m2
06:30 15.2 °C 13.4 °C 1016.3 hPa WNW 3.2 km/h 12.9 km/h 89% 0.0 mm 11 W/m2
06:35 15.2 °C 13.4 °C 1016.3 hPa NW 7.9 km/h 11.3 km/h 89% 0.0 mm 12 W/m2
06:40 15.1 °C 13.1 °C 1016.3 hPa West 3.2 km/h 12.9 km/h 88% 0.0 mm 18 W/m2
06:45 15.1 °C 13 °C 1016.3 hPa WSW 4.7 km/h 11.3 km/h 87% 0.0 mm 25 W/m2
06:50 15.1 °C 13 °C 1016.3 hPa WSW 4.7 km/h 6.4 km/h 87% 0.0 mm 18 W/m2
06:55 15.1 °C 13 °C 1016.3 hPa West 4.7 km/h 6.4 km/h 87% 0.0 mm 28 W/m2
07:00 15.1 °C 13 °C 1016.3 hPa WNW 4.7 km/h 4.8 km/h 87% 0.0 mm 30 W/m2
07:05 15.1 °C 13 °C 1016.3 hPa West 3.2 km/h 4.8 km/h 87% 0.0 mm 30 W/m2
07:10 15.1 °C 13 °C 1016.3 hPa SW 4.7 km/h 8 km/h 87% 0.0 mm 21 W/m2
07:15 15.1 °C 13 °C 1016.3 hPa West 3.2 km/h 9.7 km/h 87% 0.0 mm 18 W/m2
07:20 15 °C 12.9 °C 1016.3 hPa WNW 1.4 km/h 6.4 km/h 87% 0.0 mm 26 W/m2
07:25 15 °C 12.9 °C 1016.6 hPa West 3.2 km/h 6.4 km/h 87% 0.0 mm 26 W/m2
07:30 15 °C 12.9 °C 1016.6 hPa West 6.4 km/h 6.4 km/h 87% 0.0 mm 21 W/m2
07:35 15 °C 12.9 °C 1016.6 hPa NW 6.4 km/h 6.4 km/h 87% 0.0 mm 21 W/m2
07:40 15 °C 13 °C 1016.6 hPa WSW 6.4 km/h 6.4 km/h 88% 0.0 mm 26 W/m2
07:45 14.9 °C 12.8 °C 1016.6 hPa WNW 7.9 km/h 11.3 km/h 87% 0.0 mm 39 W/m2
07:50 15 °C 12.9 °C 1016.6 hPa West 6.4 km/h 8 km/h 87% 0.0 mm 44 W/m2
07:55 14.9 °C 12.6 °C 1016.6 hPa WSW 6.4 km/h 14.5 km/h 86% 0.0 mm 40 W/m2
08:00 14.9 °C 12.6 °C 1016.6 hPa West 9.7 km/h 12.9 km/h 86% 0.0 mm 42 W/m2
08:05 14.9 °C 12.6 °C 1016.6 hPa West 11.1 km/h 16.1 km/h 86% 0.0 mm 39 W/m2
08:10 14.9 °C 12.6 °C 1016.6 hPa NW 6.4 km/h 6.4 km/h 86% 0.0 mm 32 W/m2
08:15 14.9 °C 12.4 °C 1016.9 hPa WNW 3.2 km/h 12.9 km/h 85% 0.0 mm 32 W/m2
08:20 14.9 °C 12.6 °C 1016.9 hPa West 3.2 km/h 12.9 km/h 86% 0.0 mm 35 W/m2
08:25 14.9 °C 12.6 °C 1016.9 hPa NW 6.4 km/h 6.4 km/h 86% 0.0 mm 33 W/m2
08:30 14.9 °C 12.6 °C 1016.9 hPa West 1.4 km/h 12.9 km/h 86% 0.0 mm 37 W/m2
08:35 14.9 °C 12.6 °C 1016.9 hPa WNW 3.2 km/h 4.8 km/h 86% 0.0 mm 33 W/m2
08:40 14.9 °C 12.6 °C 1016.9 hPa West 3.2 km/h 4.8 km/h 86% 0.0 mm 35 W/m2
08:46 14.9 °C 12.6 °C 1016.9 hPa SW 3.2 km/h 4.8 km/h 86% 0.0 mm 42 W/m2
08:51 14.9 °C 12.8 °C 1016.9 hPa Calm   3.2 km/h 87% 0.0 mm 56 W/m2
08:56 14.9 °C 12.8 °C 1016.9 hPa WSW 3.2 km/h 8 km/h 87% 0.0 mm 77 W/m2
09:01 14.9 °C 12.8 °C 1016.9 hPa NW 1.4 km/h 4.8 km/h 87% 0.0 mm 72 W/m2
09:06 15 °C 12.9 °C 1016.9 hPa West 6.4 km/h 8 km/h 87% 0.0 mm 72 W/m2
09:11 15.1 °C 13 °C 1016.9 hPa West 4.7 km/h 12.9 km/h 87% 0.0 mm 72 W/m2
09:16 15.1 °C 13 °C 1016.9 hPa WSW 4.7 km/h 4.8 km/h 87% 0.0 mm 62 W/m2
09:21 15.2 °C 12.9 °C 1016.9 hPa SSW 4.7 km/h 12.9 km/h 86% 0.0 mm 77 W/m2
09:26 15.2 °C 12.9 °C 1016.9 hPa West 6.4 km/h 9.7 km/h 86% 0.0 mm 79 W/m2
09:31 15.2 °C 12.9 °C 1016.9 hPa WSW 3.2 km/h 9.7 km/h 86% 0.0 mm 70 W/m2
09:36 15.3 °C 13 °C 1016.9 hPa WSW 4.7 km/h 9.7 km/h 86% 0.0 mm 65 W/m2
09:41 15.2 °C 12.9 °C 1016.9 hPa WSW 1.4 km/h 9.7 km/h 86% 0.0 mm 69 W/m2
09:46 15.3 °C 13 °C 1016.9 hPa West 1.4 km/h 11.3 km/h 86% 0.0 mm 65 W/m2
09:51 15.2 °C 12.9 °C 1016.9 hPa West 6.4 km/h 8 km/h 86% 0.0 mm 63 W/m2
09:56 15.2 °C 12.9 °C 1016.9 hPa NW 7.9 km/h 9.7 km/h 86% 0.0 mm 67 W/m2
10:01 15.3 °C 13 °C 1016.9 hPa WSW 3.2 km/h 6.4 km/h 86% 0.0 mm 70 W/m2
10:06 15.3 °C 13 °C 1017.3 hPa West 6.4 km/h 6.4 km/h 86% 0.0 mm 67 W/m2
10:11 15.3 °C 13 °C 1017.3 hPa West 11.1 km/h 11.3 km/h 86% 0.0 mm 67 W/m2
10:16 15.3 °C 13 °C 1017.3 hPa WNW 3.2 km/h 6.4 km/h 86% 0.0 mm 69 W/m2
10:21 15.3 °C 12.8 °C 1017.3 hPa West 6.4 km/h 17.7 km/h 85% 0.0 mm 69 W/m2
10:26 15.3 °C 12.8 °C 1017.3 hPa SW 6.4 km/h 9.7 km/h 85% 0.0 mm 70 W/m2
10:31 15.3 °C 13 °C 1017.3 hPa WSW 6.4 km/h 17.7 km/h 86% 0.0 mm 76 W/m2
10:36 15.4 °C 12.9 °C 1017.3 hPa WSW 4.7 km/h 11.3 km/h 85% 0.0 mm 90 W/m2
10:41 15.4 °C 13.1 °C 1017.3 hPa West 3.2 km/h 4.8 km/h 86% 0.0 mm 113 W/m2
10:46 15.5 °C 13 °C 1017.3 hPa NW 1.4 km/h 11.3 km/h 85% 0.0 mm 113 W/m2
10:51 15.6 °C 13.1 °C 1017.3 hPa WNW 3.2 km/h 6.4 km/h 85% 0.0 mm 118 W/m2
10:56 15.7 °C 13.2 °C 1017.3 hPa West 3.2 km/h 6.4 km/h 85% 0.0 mm 104 W/m2
11:02 15.7 °C 13 °C 1017.3 hPa West 3.2 km/h 6.4 km/h 84% 0.0 mm 151 W/m2
11:07 15.8 °C 13.1 °C 1017.3 hPa West 3.2 km/h 11.3 km/h 84% 0.0 mm 158 W/m2
Juneau County Weather
Compliments of Weather Underground - 2 mb